www.pogodaiklimat.ru

Погода и климат >> Архив погоды >> Россия >> Хабаровский край >> Нижнетамбовское


ПОГОДА в Нижнетамбовском

  • Прогноз погоды в Нижнетамбовском
  • Монитор погоды в Нижнетамбовском

АРХИВ ПОГОДЫ в Нижнетамбовском

Время (UTC), дата Ветер
(напр.,м/с)
 
Видим.   Явления Облачность Т
(С)
Тd
(С)
f
(%)
Тe
(С)
Тes
(С)
Комфортность P
(гПа)
Po
(гПа)
Тmin
(С)
Tmax
(С)
R
(мм)
R24
(мм)
S
(см)
15 9.07 СВ 2 50 км 7 баллов +16.7 +10.5 67 +17 +17 1014.1 1012.0
18 9.07 СВ 3 50 км 7 баллов +15.6 +9.5 67 +15 +15 1012.8 1010.7
21 9.07 СВ 2 50 км 7 баллов +15.4 +10.6 73 +15 +16 1014.1 1012.0 +15.3
00 10.07 СВ 2 50 км 7 баллов +18.0 +11.3 65 +19 +22 1014.1 1012.0
03 10.07 В 2 50 км 9 баллов +22.6 +13.4 56 +26 +27 жарко 1012.8 1010.7
06 10.07 С 2 50 км 7 баллов +25.9 +15.9 54 +29 +32 душно 1011.4 1009.3
09 10.07 СВ 2 50 км 9 баллов +25.0 +16.2 58 +28 +28 жарко 1010.1 1008.0 +27.1
12 10.07 СВ 1 50 км 6 баллов +20.6 +15.6 73 +25 +25 комфорт 1011.4 1009.3
15 10.07 СВ 1 50 км 6 баллов +19.3 +14.5 74 +22 +22 комфорт 1011.4 1009.3
18 10.07 СВ 1 50 км 7 баллов +17.2 +13.7 80 +18 +18 1011.4 1009.3
21 10.07 СВ 1 50 км 7 баллов +16.8 +13.9 83 +18 +18 1011.4 1009.3 +16.6
00 11.07 С 2 50 км 10 баллов +20.3 +15.3 73 +24 +24 комфорт 1010.1 1008.0
03 11.07 Ю 1 50 км 9 баллов +27.7 +19.2 60 +33 +35 очень
душно
1007.3 1005.3
06 11.07 Ю 2 50 км в посл. час ливневой дождь 10 баллов +24.2 +20.5 80 +30 +30 очень
душно
1006.1 1004.0
09 11.07 СВ 3 50 км 10 баллов +22.2 +18.6 80 +27 +27 душно 1007.4 1005.3 +28.0 0.8
12 11.07 СВ 1 20 км {ливн. осадки} 10/8 300 м
[Cb cap As op]
+19.7 +18.7 94 +24 +24 комфорт 1006.9 1004.1
15 11.07 СВ 1 20 км 10 баллов +18.7 +17.9 95 +21 +21 комфорт 1006.1 1004.0
18 11.07 СВ 2 20 км 10 баллов +18.2 +17.2 94 +19 +19 1006.1 1004.0
21 11.07 СВ 1 10 км 10 баллов +18.0 +16.8 93 +19 +19 1006.1 1004.0 +17.8 2
00 12.07 СВ 2 10 км 10/10 300 м
[Cb cap]
+17.7 +15.8 89 +18 +18 1006.3 1003.4 +17.7
03 12.07 СВ 3 10 км 10 баллов +18.8 +16.0 84 +20 +20 1006.1 1004.0
06 12.07 СВ 3 50 км 9 баллов +19.3 +16.0 81 +21 +22 комфорт 1006.1 1004.0
09 12.07 СВ 4 50 км 9 баллов +17.8 +15.4 86 +18 +18 1006.1 1004.0 +20.6
12 12.07 СВ 4 20 км 10 баллов +17.6 +15.4 87 +17 +17 1007.4 1005.3
15 12.07 СВ 4 20 км 10 баллов +17.1 +14.7 86 +17 +17 1007.4 1005.3
18 12.07 СВ 4 20 км 10 баллов +16.6 +14.4 87 +16 +16 1007.4 1005.3
21 12.07 СВ 4 20 км 9 баллов +16.9 +14.4 85 +16 +17 1007.4 1005.3 +16.5
00 13.07 СВ 5-12
{12}
50 км 8/4 300 м
[Cb cap Ac trans Ci fib]
+18.7 +14.3 76 +19 +22 1008.0 1005.2
03 13.07 СВ 3 50 км 9 баллов +20.9 +14.3 66 +24 +26 комфорт 1008.8 1006.7
06 13.07 СВ 3 50 км 7 баллов +22.8 +15.4 63 +27 +29 душно 1007.4 1005.3
18 13.07 СВ 3 50 км 2 балла +16.9 +14.5 86 +17 +17 1008.8 1006.7
21 13.07 СВ 3 50 км 7 баллов +17.3 +14.2 82 +17 +18 1010.1 1008.0 +16.8
00 14.07 СВ 3 50 км 7 баллов +20.0 +15.0 73 +23 +25 комфорт 1008.8 1006.7
03 14.07 СВ 3 50 км 9 баллов +22.0 +16.0 69 +26 +27 душно 1008.8 1006.7
06 14.07 СВ 2 50 км 9 баллов +23.2 +16.5 66 +28 +29 душно 1008.8 1006.7
09 14.07 СВ 1 50 км 9 баллов +23.3 +17.3 69 +29 +29 душно 1008.8 1006.7 +24.1
12 14.07 СВ 1 50 км 9 баллов +21.1 +16.9 77 +25 +25 комфорт 1008.8 1006.7
15 14.07 СВ 1 50 км 10 баллов +20.1 +16.7 81 +24 +24 комфорт 1010.1 1008.0
18 14.07 СВ 1 50 км 10 баллов +18.7 +15.9 84 +21 +21 комфорт 1011.4 1009.3
21 14.07 СВ 1 50 км 10 баллов +18.5 +15.4 82 +20 +20 1011.4 1009.3 +17.8
00 15.07 СВ 1 50 км 9 баллов +20.0 +15.6 76 +24 +25 комфорт 1012.8 1010.7
03 15.07 С 2 50 км 9 баллов +21.1 +16.9 77 +25 +26 комфорт 1011.4 1009.3
06 15.07 СЗ 1 50 км 7 баллов +26.5 +16.4 54 +30 +34 душно 1010.1 1008.0
09 15.07 штиль 0 50 км 7 баллов +26.4 +17.5 58 +31 +31 душно 1010.1 1008.0 +27.9
12 15.07 штиль 0 50 км 7 баллов +18.6 +17.8 95 +20 +20 1010.1 1008.0
15 15.07 штиль 0 50 км 2 балла +16.4 +15.8 96 +16 +16 1011.4 1009.3
18 15.07 ЮВ 1 50 км 7 баллов +14.8 +14.3 97 +15 +15 1011.4 1009.3
21 15.07 ЮВ 1 50 км 9 баллов +16.4 +15.8 96 +17 +17 1011.4 1009.3 +13.6
00 16.07 З 1 50 км 9 баллов +23.4 +17.6 70 +29 +30 душно 1011.4 1009.3
03 16.07 ЮЗ 2 50 км 9 баллов +26.9 +17.9 58 +31 +33 душно 1010.1 1008.0
06 16.07 ЮЗ 3 50 км 7 баллов +28.9 +16.8 48 +33 +35 очень
душно
1008.7 1006.7
09 16.07 ЮЗ 3 50 км 5 баллов +28.1 +17.0 51 +32 +33 душно 1007.3 1005.3 +29.5

 

Местоположение метеостанции Нижнетамбовское (Хабаровский край, Россия): широта 50.92 долгота 138.10 высота над уровнем моря 18 м.

В архиве по умолчанию представлена погода в Нижнетамбовском за последнюю неделю. Архивные данные за месяц целиком и за предыдущие месяцы, начиная с января 2011 года, Вы можете получить, выбрав интересующий диапазон дат из раскрывающегося списка и нажав кнопку "Ввод!".


*Определитесь, кто Вы:
робот инопланетянин человек

Внимание! Время в таблицах - всемирное. Для получения местного времени необходимо прибавить поправку, которая равна 10 ч.

Смотрите также архив погоды в соседних городах и на ближайших метеорологических станциях:

Погода в Сегжеме (Хабаровский край, Россия) (67 км)
Погода в Комсомольске-на-Амуре (Хабаровский край, Россия) (89 км)
Погода в Циммермановка (Хабаровский край, Россия) (89 км)
Погода в Горине (Хабаровский край, Россия) (96 км)
Погода в Амурске (Хабаровский край, Россия) (116 км)
Погода в Мариинском (Хабаровский край, Россия) (166 км)
Погода в Солекуль (Хабаровский край, Россия) (195 км)
Погода в Тумнине (Хабаровский край, Россия) (195 км)
Погода в Троицком (Хабаровский край, Россия) (197 км)
Погода в Им. Полины Осипенко (Хабаровский край, Россия) (200 км)

Пояснения к столбцам:

Ветер - указаны скорость ветра в м/с - средняя за 10 мин, порывы в срок и между сроками (в фигурных скобках) и направление, откуда дует ветер: С - северный, СВ - северо-восточный, В - восточный, ЮВ - юго-восточный, Ю - южный, ЮЗ - юго-западный, З - западный, СЗ - северо-западный.
Видимость - горизонтальная дальность видимости в метрах или километрах. При видимости от 1 до 10 км при отсутствии осадков обычно наблюдается дымка, при ухудшении видимости до 1 км и менее - туман. В сухую погоду видимость может ухудшаться дымом, пылью или мглою.
Явления - указаны атмосферные явления, наблюдавшиеся в срок или в последний час перед сроком; фигурными скобками обозначены явления, наблюдавшиеся между сроками (за 1-3 часа до срока); квадратными скобками обозначены град или гололедные отложения с указанием их диаметра в мм.
Облачность - указаны через наклонную черту общая и нижняя облачность в баллах и высота нижней границы облаков в метрах; квадратными скобками обозначены формы облаков: Ci - перистые, Cs - перисто-слоистые, Cc - перисто-кучевые, Ac - высококучевые, As - высокослоистые, Sc - слоисто-кучевые, Ns - слоисто-дождевые, Cu - кучевые, Cb - кучево-дождевые. Подробнее классификацию облаков см. в Атласе облаков (PDF).
T - Температура воздуха - температура, измеренная на высоте 2 м над землей.
Td - Температура точки росы - температура, при понижении до которой содержащийся в воздухе водяной пар достигнет насыщения.
f - Относительная влажность воздуха - влажноcть воздуха, измеренная на высоте 2 м над землей.
Te - Эффективная температура - температура, которую ощущает одетый по сезону человек в тени. Характеристика душности погоды. При расчете учитывается влияние влажности воздуха и скорости ветра на теплоощущения человека.
Tes - Эффективная температура на солнце - температура, которую ощущает человек, с поправкой на солнечный нагрев. Характеристика знойности погоды. Зависит от высоты солнца над горизонтом, облачности и скорости ветра. Ночью, в пасмурную погоду, а также при ветре 12 м/с и более поправка равна нулю.
P - Атмосферное давление - приведенное к уровню моря атмосферное давление.
Po - Атмосферное давление - измеренное на уровне метеостанции атмосферное давление.
Tmin - Минимальная температура - минимум температуры воздуха на высоте 2 м над землей.
Tmax - Максимальная температура - максимум температуры воздуха на высоте 2 м над землей.
R - Количество осадков - Количество выпавших осадков за период времени, мм. При наведении курсора мыши на число - период времени, за который выпало указанное количество осадков.
R24 - Количество осадков - Количество выпавших осадков за 24 часа, мм.
S - Снежный покров - Высота снежного покрова, см. При наведении курсора мыши на число - состояние снежного покрова и степень покрытия местности в баллах.